Change the Weather History Date:

Tuesday, October 8, 2013

  Actual Average Record
Temperature  
Mean Temperature 74 °F -  
Max Temperature 79 °F 79 °F 86 °F (1997)
Min Temperature 68 °F 68 °F 59 °F (2000)
Cooling Degree Days 9    
Growing Degree Days 24 (Base 50)    
Moisture  
Dew Point 71 °F    
Average Humidity 92    
Maximum Humidity 100    
Minimum Humidity 81    
Precipitation  
Precipitation 1.93 in - - ()
Sea Level Pressure  
Sea Level Pressure 29.87 in    
Wind  
Wind Speed 14 mph (NNE)    
Max Wind Speed 23 mph    
Max Gust Speed 32 mph    
Visibility 6 miles    
Events Rain    
Averages and records for this station are not official NWS values.
T = Trace of Precipitation, MM = Missing Value Source: NWS Daily Summary

Daily Weather History Graph

Daily Weather History Graph

Search for Another Location

Airport or City:

Trip Planner

Search our weather history database for the weather conditions in past years. The results will help you decide how hot, cold, wet, or windy it might be!

Date:

Astronomy

Oct. 08, 2013 Rise Set
Actual Time 7:23 AM EDT 7:02 PM EDT
Civil Twilight 6:59 AM EDT 7:26 PM EDT
Nautical Twilight 6:31 AM EDT 7:54 PM EDT
Astronomical Twilight 6:03 AM EDT 8:21 PM EDT
Moon 11:01 AM EDT (10/8) 9:53 PM EDT (10/8)
Length of Visible Light 12h 26m
Length of Day
11h 38m
Waxing Crescent, 16% of the Moon is Illuminated
Oct 8
Waxing Crescent
Oct 11
First Quarter
Oct 18
Full
Oct 26
Last Quarter
Nov 3
New

Hourly Weather History & Observations

Time (EDT) Temp. Dew Point Humidity Pressure Visibility Wind Dir Wind Speed Gust Speed Precip Events Conditions
12:52 AM 75.0 °F 73.0 °F 94% 29.82 in 4.0 mi ESE 13.8 mph 20.7 mph 0.01 in Rain Heavy Rain
1:42 AM 73.0 °F 71.1 °F 93% 29.82 in 5.0 mi East 11.5 mph - 0.49 in Rain Rain
1:52 AM 72.0 °F 71.1 °F 97% 29.82 in 2.0 mi East 16.1 mph - 0.62 in Rain Heavy Rain
2:19 AM 72.0 °F 71.1 °F 97% 29.81 in 5.0 mi North 6.9 mph - 0.22 in Rain Rain
2:52 AM 73.0 °F 71.1 °F 93% 29.80 in 10.0 mi NNE 6.9 mph - 0.22 in   Overcast
3:52 AM 73.0 °F 72.0 °F 96% 29.80 in 10.0 mi North 5.8 mph - N/A   Overcast
4:00 AM 73.0 °F 72.0 °F 96% 29.80 in 9.0 mi North 5.8 mph - N/A   Overcast
4:19 AM 73.9 °F 73.0 °F 97% 29.80 in 4.0 mi NE 15.0 mph - 0.07 in Rain Rain
4:26 AM 73.9 °F 73.0 °F 97% 29.80 in 2.0 mi NE 16.1 mph - 0.18 in Rain Heavy Rain
4:28 AM 73.9 °F 73.0 °F 97% 29.80 in 1.8 mi NE 15.0 mph - 0.23 in Rain Heavy Rain
4:37 AM 73.9 °F 73.0 °F 97% 29.80 in 1.8 mi NE 12.7 mph - 0.32 in Rain Heavy Rain
4:44 AM 73.9 °F 73.0 °F 97% 29.80 in 3.0 mi NNE 9.2 mph - 0.35 in Rain Heavy Rain
4:50 AM 73.4 °F 73.4 °F 100% 29.81 in 2.5 mi NE 10.4 mph - 0.46 in Rain Heavy Rain
4:52 AM 73.9 °F 73.0 °F 97% 29.81 in 2.5 mi NNE 9.2 mph - 0.46 in Rain Heavy Rain
4:55 AM 73.9 °F 73.0 °F 97% 29.81 in 3.0 mi NE 15.0 mph - 0.00 in Rain Light Rain
5:08 AM 73.9 °F 72.0 °F 93% 29.81 in 10.0 mi ENE 17.3 mph - 0.00 in   Overcast
5:10 AM 73.9 °F 72.0 °F 93% 29.81 in 10.0 mi ENE 15.0 mph - 0.00 in   Overcast
5:45 AM 73.9 °F 72.0 °F 93% 29.81 in 10.0 mi NE 15.0 mph - 0.00 in   Overcast
5:52 AM 73.9 °F 72.0 °F 93% 29.82 in 10.0 mi NE 15.0 mph - 0.00 in   Overcast
6:12 AM 73.9 °F 72.0 °F 93% 29.83 in 10.0 mi North 13.8 mph - N/A   Overcast
6:19 AM 73.9 °F 72.0 °F 93% 29.82 in 7.0 mi NNE 9.2 mph - 0.00 in Rain Light Rain
6:52 AM 72.0 °F 70.0 °F 93% 29.83 in 3.0 mi North 11.5 mph - 0.25 in Rain Light Rain
7:52 AM 73.9 °F 73.0 °F 97% 29.83 in 5.0 mi North 10.4 mph - 0.35 in Rain Light Rain
8:36 AM 75.0 °F 73.0 °F 94% 29.85 in 10.0 mi North 11.5 mph - 0.01 in   Overcast
8:52 AM 75.0 °F 72.0 °F 90% 29.86 in 10.0 mi NNE 12.7 mph 20.7 mph 0.01 in   Overcast
9:52 AM 78.1 °F 72.0 °F 81% 29.88 in 10.0 mi NNE 11.5 mph - N/A   Overcast
10:52 AM 78.1 °F 72.0 °F 81% 29.89 in 10.0 mi NNE 16.1 mph - N/A   Overcast
11:52 AM 79.0 °F 73.0 °F 82% 29.89 in 10.0 mi North 13.8 mph - N/A   Overcast
12:38 PM 75.9 °F 73.0 °F 91% 29.90 in 2.0 mi NNE 16.1 mph 26.5 mph 0.00 in Rain Light Rain
12:56 PM 75.0 °F 73.0 °F 94% 29.90 in 2.0 mi North 17.3 mph 31.1 mph N/A Rain Light Rain
1:31 PM 73.9 °F 72.0 °F 93% 29.90 in 6.0 mi North 20.7 mph 31.1 mph N/A Rain Light Rain
1:52 PM 73.9 °F 71.1 °F 91% 29.90 in 6.0 mi North 23.0 mph 32.2 mph N/A   Overcast
2:52 PM 73.0 °F 70.0 °F 90% 29.89 in 5.0 mi North 19.6 mph 32.2 mph N/A   Overcast
3:52 PM 73.9 °F 70.0 °F 87% 29.91 in 7.0 mi North 18.4 mph 32.2 mph N/A   Overcast
4:26 PM 73.0 °F 70.0 °F 90% 29.93 in 3.0 mi North 19.6 mph 28.8 mph 0.00 in Rain Light Rain
4:52 PM 72.0 °F 69.1 °F 91% 29.94 in 5.0 mi NNE 19.6 mph 28.8 mph 0.00 in   Overcast
5:08 PM 71.1 °F 69.1 °F 93% 29.94 in 3.0 mi North 21.9 mph 31.1 mph 0.00 in Rain Light Rain
5:52 PM 71.1 °F 68.0 °F 90% 29.95 in 6.0 mi North 19.6 mph 29.9 mph 0.00 in   Overcast
6:52 PM 71.1 °F 66.9 °F 87% 29.96 in 10.0 mi NNE 18.4 mph 27.6 mph N/A   Overcast
7:52 PM 71.1 °F 66.9 °F 87% 29.97 in 10.0 mi North 18.4 mph 27.6 mph N/A   Overcast
8:52 PM 70.0 °F 66.9 °F 90% 29.99 in 3.0 mi North 17.3 mph 31.1 mph 0.01 in Rain Light Rain
9:01 PM 69.1 °F 66.9 °F 93% 29.99 in 2.0 mi North 20.7 mph 28.8 mph 0.00 in Rain Light Rain
9:19 PM 69.1 °F 66.0 °F 90% 30.00 in 6.0 mi NNE 17.3 mph 27.6 mph 0.00 in   Overcast
9:52 PM 69.1 °F 66.0 °F 90% 30.01 in 6.0 mi North 17.3 mph 27.6 mph 0.00 in Rain Light Rain
10:52 PM 69.1 °F 66.0 °F 90% 30.01 in 10.0 mi North 18.4 mph 26.5 mph 0.00 in   Overcast
11:52 PM 68.0 °F 66.0 °F 93% 30.01 in 7.0 mi North 12.7 mph - N/A   Overcast